User: anonymous
Location: Unspecified
(0.0000°N, 0.0000°E)
Time: 18:25:57
(UTC+00:00)
Language:

Landsat 7 - Orbit

View from above orbital plane
View from above orbital plane
View from above satellite
View from above satellite

Ground track
Ground track

The orbit data is extracted from the following two-line orbital elements,

1 25682U 99020A   14110.19927884  .00000562  00000-0  13488-3 0  1620
2 25682 098.2196 180.5687 0000610 093.3930 266.7397 14.57097622798545
Epoch (UTC): 20 April 2014 04:46:57
Eccentricity: 0.0000610
inclination: 98.2196°
perigee height: 702 km
apogee height: 703 km
right ascension of ascending node: 180.5687°
argument of perigee: 93.3930°
revolutions per day: 14.57097622
mean anomaly at epoch: 266.7397°
orbit number at epoch: 79854

The dashed part of the orbit path shows where the satellite is in the earth's shadow,  

DLR